TimeEDT,TemperatureF,Dew PointF,Humidity,Sea Level PressureIn,VisibilityMPH,Wind Direction,Wind SpeedMPH,Gust SpeedMPH,PrecipitationIn,Events,Conditions,WindDirDegrees,DateUTC
12:15 AM,71.6,71.6,100,30.22,5.0,Calm,Calm,-,N/A,,Scattered Clouds,0,2013-07-19 04:15:00
12:35 AM,71.6,71.6,100,30.21,5.0,Calm,Calm,-,N/A,,Clear,0,2013-07-19 04:35:00
12:55 AM,71.6,71.6,100,30.21,4.0,West,3.5,-,N/A,,Scattered Clouds,260,2013-07-19 04:55:00
1:15 AM,71.6,71.6,100,30.21,4.0,Calm,Calm,-,N/A,,Scattered Clouds,0,2013-07-19 05:15:00
1:35 AM,71.6,71.6,100,30.21,3.0,Calm,Calm,-,N/A,,Clear,0,2013-07-19 05:35:00
1:55 AM,71.6,71.6,100,30.20,4.0,Calm,Calm,-,N/A,,Clear,0,2013-07-19 05:55:00
2:15 AM,71.6,71.6,100,30.20,3.0,Calm,Calm,-,N/A,,Clear,0,2013-07-19 06:15:00
2:35 AM,71.6,71.6,100,30.19,3.0,Calm,Calm,-,N/A,,Clear,0,2013-07-19 06:35:00
2:55 AM,71.6,71.6,100,30.19,2.0,Calm,Calm,-,N/A,,Mostly Cloudy,0,2013-07-19 06:55:00
3:15 AM,71.6,71.6,100,30.18,0.2,Calm,Calm,-,N/A,Fog,Fog,0,2013-07-19 07:15:00
3:35 AM,69.8,69.8,100,30.18,1.0,Calm,Calm,-,N/A,,Overcast,0,2013-07-19 07:35:00
3:55 AM,71.6,71.6,100,30.18,0.2,Calm,Calm,-,N/A,Fog,Fog,0,2013-07-19 07:55:00
4:15 AM,71.6,71.6,100,30.18,0.2,Calm,Calm,-,N/A,Fog,Fog,0,2013-07-19 08:15:00
4:35 AM,71.6,71.6,100,30.18,0.2,Calm,Calm,-,N/A,Fog,Fog,0,2013-07-19 08:35:00
4:55 AM,69.8,69.8,100,30.18,0.2,Calm,Calm,-,N/A,Fog,Fog,0,2013-07-19 08:55:00
5:15 AM,69.8,69.8,100,30.18,0.2,Calm,Calm,-,N/A,Fog,Fog,0,2013-07-19 09:15:00
5:35 AM,71.6,71.6,100,30.17,0.2,Calm,Calm,-,N/A,Fog,Fog,0,2013-07-19 09:35:00
5:55 AM,69.8,69.8,100,30.17,0.2,Calm,Calm,-,N/A,Fog,Fog,0,2013-07-19 09:55:00
6:15 AM,69.8,69.8,100,30.18,0.2,Calm,Calm,-,N/A,Fog,Fog,0,2013-07-19 10:15:00
6:35 AM,69.8,69.8,100,30.18,0.2,Calm,Calm,-,N/A,Fog,Fog,0,2013-07-19 10:35:00
6:55 AM,69.8,69.8,100,30.18,0.2,Calm,Calm,-,N/A,Fog,Fog,0,2013-07-19 10:55:00
7:15 AM,69.8,69.8,100,30.18,0.2,Calm,Calm,-,N/A,Fog,Fog,0,2013-07-19 11:15:00
7:35 AM,71.6,71.6,100,30.18,0.2,Calm,Calm,-,N/A,Fog,Fog,0,2013-07-19 11:35:00
7:55 AM,69.8,69.8,100,30.19,0.2,West,3.5,-,N/A,Fog,Fog,260,2013-07-19 11:55:00
8:15 AM,69.8,69.8,100,30.19,0.2,Calm,Calm,-,N/A,Fog,Fog,0,2013-07-19 12:15:00
8:35 AM,71.6,71.6,100,30.19,0.5,West,3.5,-,N/A,Fog,Fog,260,2013-07-19 12:35:00
8:55 AM,71.6,71.6,100,30.20,0.8,Calm,Calm,-,N/A,,Overcast,0,2013-07-19 12:55:00
9:15 AM,71.6,71.6,100,30.20,0.8,Calm,Calm,-,N/A,,Overcast,0,2013-07-19 13:15:00
9:35 AM,71.6,71.6,100,30.20,1.5,Calm,Calm,-,N/A,,Overcast,0,2013-07-19 13:35:00
9:55 AM,73.4,73.4,100,30.20,3.0,Calm,Calm,-,N/A,,Mostly Cloudy,0,2013-07-19 13:55:00
10:15 AM,75.2,75.2,100,30.20,4.0,Calm,Calm,-,N/A,,Scattered Clouds,0,2013-07-19 14:15:00
10:35 AM,75.2,75.2,100,30.19,7.0,West,4.6,-,N/A,,Clear,280,2013-07-19 14:35:00
10:55 AM,80.6,77.0,89,30.19,10.0,WNW,4.6,-,N/A,,Clear,290,2013-07-19 14:55:00
11:15 AM,82.4,75.2,79,30.19,10.0,WNW,3.5,-,N/A,,Clear,290,2013-07-19 15:15:00
11:35 AM,82.4,75.2,79,30.19,10.0,West,4.6,-,N/A,,Clear,260,2013-07-19 15:35:00
11:55 AM,84.2,73.4,70,30.19,10.0,West,3.5,-,N/A,,Clear,280,2013-07-19 15:55:00
12:15 PM,84.2,73.4,70,30.18,10.0,WNW,4.6,-,N/A,,Clear,300,2013-07-19 16:15:00
12:35 PM,84.2,73.4,70,30.18,10.0,West,5.8,-,N/A,,Clear,260,2013-07-19 16:35:00
12:55 PM,86.0,75.2,70,30.17,10.0,SW,3.5,-,N/A,Thunderstorm,Clear,230,2013-07-19 16:55:00
1:15 PM,86.0,73.4,66,30.16,10.0,Calm,Calm,-,N/A,,Clear,0,2013-07-19 17:15:00
1:35 PM,87.8,73.4,62,30.14,10.0,Calm,Calm,-,N/A,,Scattered Clouds,0,2013-07-19 17:35:00
1:55 PM,87.8,73.4,62,30.14,10.0,Calm,Calm,-,N/A,Thunderstorm,Scattered Clouds,0,2013-07-19 17:55:00
2:15 PM,87.8,73.4,62,30.13,10.0,SW,3.5,-,N/A,,Scattered Clouds,230,2013-07-19 18:15:00
2:35 PM,82.4,71.6,70,30.13,10.0,WSW,11.5,19.6,N/A,Thunderstorm,Thunderstorm,240,2013-07-19 18:35:00
2:55 PM,73.4,71.6,94,30.13,10.0,WNW,5.8,-,0.07,Rain,Light Rain,290,2013-07-19 18:55:00
3:15 PM,77.0,75.2,94,30.11,10.0,Calm,Calm,-,N/A,Rain,Light Rain,0,2013-07-19 19:15:00
3:35 PM,82.4,75.2,79,30.11,10.0,WNW,3.5,-,N/A,,Clear,290,2013-07-19 19:35:00
3:55 PM,84.2,75.2,74,30.10,10.0,West,5.8,-,N/A,,Clear,260,2013-07-19 19:55:00
4:15 PM,84.2,75.2,74,30.10,10.0,WSW,3.5,-,N/A,,Scattered Clouds,250,2013-07-19 20:15:00
4:35 PM,80.6,73.4,79,30.10,10.0,SW,4.6,-,N/A,,Scattered Clouds,220,2013-07-19 20:35:00
4:55 PM,80.6,73.4,79,30.10,10.0,SW,4.6,-,N/A,,Clear,220,2013-07-19 20:55:00
5:15 PM,80.6,73.4,79,30.10,10.0,South,4.6,-,N/A,,Clear,190,2013-07-19 21:15:00
5:35 PM,80.6,73.4,79,30.10,10.0,South,4.6,-,N/A,,Clear,180,2013-07-19 21:35:00
5:55 PM,80.6,73.4,79,30.09,10.0,South,3.5,-,N/A,,Clear,190,2013-07-19 21:55:00
6:15 PM,80.6,73.4,79,30.09,10.0,South,5.8,-,N/A,,Clear,190,2013-07-19 22:15:00
6:35 PM,80.6,73.4,79,30.11,10.0,SSW,4.6,-,N/A,Thunderstorm,Scattered Clouds,210,2013-07-19 22:35:00
6:55 PM,78.8,73.4,83,30.13,10.0,West,11.5,21.9,N/A,Thunderstorm,Mostly Cloudy,280,2013-07-19 22:55:00
7:15 PM,73.4,69.8,88,30.13,10.0,WNW,9.2,17.3,N/A,Rain-Thunderstorm,Light Thunderstorms and Rain,290,2013-07-19 23:15:00
7:35 PM,71.6,69.8,94,30.11,10.0,NW,5.8,-,N/A,Rain,Light Rain,310,2013-07-19 23:35:00
7:55 PM,71.6,69.8,94,30.10,10.0,Calm,Calm,-,N/A,,Clear,0,2013-07-19 23:55:00
8:15 PM,71.6,69.8,94,30.10,10.0,Calm,Calm,-,N/A,Rain,Light Rain,0,2013-07-20 00:15:00
8:35 PM,71.6,71.6,100,30.10,10.0,Calm,Calm,-,N/A,Rain,Light Rain,0,2013-07-20 00:35:00
8:55 PM,71.6,71.6,100,30.11,10.0,Calm,Calm,-,N/A,,Clear,0,2013-07-20 00:55:00
9:15 PM,69.8,69.8,100,30.12,10.0,Calm,Calm,-,N/A,,Clear,0,2013-07-20 01:15:00
9:35 PM,69.8,69.8,100,30.14,10.0,Calm,Calm,-,N/A,,Clear,0,2013-07-20 01:35:00
9:55 PM,69.8,69.8,100,30.13,7.0,Calm,Calm,-,N/A,,Scattered Clouds,0,2013-07-20 01:55:00
10:15 PM,69.8,69.8,100,30.14,7.0,Calm,Calm,-,N/A,,Clear,0,2013-07-20 02:15:00
10:35 PM,69.8,69.8,100,30.13,7.0,Calm,Calm,-,N/A,,Scattered Clouds,0,2013-07-20 02:35:00
10:55 PM,69.8,69.8,100,30.13,10.0,SSW,3.5,-,N/A,,Mostly Cloudy,210,2013-07-20 02:55:00
11:15 PM,71.6,71.6,100,30.12,10.0,SSW,3.5,-,N/A,,Scattered Clouds,210,2013-07-20 03:15:00
11:35 PM,71.6,71.6,100,30.11,10.0,Calm,Calm,-,N/A,,Clear,0,2013-07-20 03:35:00
11:55 PM,71.6,71.6,100,30.11,7.0,Calm,Calm,-,N/A,,Clear,0,2013-07-20 03:55:00